Moab, UT

5:49 PM MDT on October 13, 2019 (GMT -0600)
Canyonlands

Weather History for KCNY - August, 2019

Change the Weather History Date:

Sunday, August 4, 2019

  Actual Average Record
Temperature  
Mean Temperature 85 °F 80 °F  
Max Temperature 94 °F 95 °F 106 °F (1952)
Min Temperature 75 °F 65 °F 49 °F (1944)
Degree Days  
Heating Degree Days 0 0  
Month to date heating degree days 0 0  
Since 1 June heating degree days 23 17  
Since 1 July heating degree days 0 0  
Cooling Degree Days 20 15  
Month to date cooling degree days 76 60  
Year to date cooling degree days 849 853  
Since 1 June cooling degree days 834 789  
Growing Degree Days 34 (Base 50)    
Moisture  
Dew Point 50 °F    
Average Humidity 33    
Maximum Humidity 46    
Minimum Humidity 20    
Precipitation  
Precipitation T in 0.03 in 0.44 in (1948)
Month to date precipitation T 0.10  
Year to date precipitation 6.15 4.64  
Sea Level Pressure  
Sea Level Pressure 29.95 in    
Wind  
Wind Speed 8 mph (ESE)    
Max Wind Speed 24 mph    
Max Gust Speed 34 mph    
Visibility 10 miles    
Events      
T = Trace of Precipitation, MM = Missing Value Source: NWS Daily Summary

Daily Weather History Graph

Daily Weather History Graph

Search for Another Location

Airport or City:

Astronomy

Aug. 04, 2019 Rise Set
Actual Time 6:22 AM MDT 8:26 PM MDT
Civil Twilight 5:53 AM MDT 8:56 PM MDT
Nautical Twilight 5:17 AM MDT 9:31 PM MDT
Astronomical Twilight 4:38 AM MDT 10:10 PM MDT
Moon 10:30 AM MDT (8/4) 11:10 PM MDT (8/4)
Length of Visible Light 15h 02m
Length of Day
14h 03m
Waxing Crescent, 18% of the Moon is Illuminated
Aug 4
Waxing Crescent
Aug 7
First Quarter
Aug 15
Full
Aug 23
Last Quarter
Aug 30
New

Hourly Weather History & Observations

Time (MDT) Temp. Dew Point Humidity Pressure Visibility Wind Dir Wind Speed Gust Speed Precip Events Conditions
12:53 AM 82.0 °F 48.0 °F 30% 29.90 in 10.0 mi East 9.2 mph - N/A   Clear
1:53 AM 81.0 °F 48.0 °F 31% 29.90 in 10.0 mi ESE 9.2 mph - N/A   Mostly Cloudy
2:53 AM 79.0 °F 55.9 °F 45% 29.92 in 10.0 mi SSE 3.5 mph - 0.00 in   Overcast
3:53 AM 78.1 °F 54.0 °F 43% 29.93 in 10.0 mi SSE 4.6 mph - N/A   Clear
4:53 AM 77.0 °F 53.1 °F 43% 29.94 in 10.0 mi SE 4.6 mph - N/A   Clear
5:53 AM 75.9 °F 54.0 °F 46% 29.94 in 10.0 mi SE 6.9 mph - N/A   Clear
6:53 AM 75.9 °F 52.0 °F 43% 29.96 in 10.0 mi SSE 4.6 mph - N/A   Clear
7:53 AM 78.1 °F 52.0 °F 40% 29.96 in 10.0 mi Calm Calm - N/A   Clear
8:53 AM 82.9 °F 52.0 °F 34% 29.97 in 10.0 mi SE 6.9 mph - N/A   Clear
9:53 AM 82.0 °F 52.0 °F 35% 29.98 in 10.0 mi ESE 6.9 mph - N/A   Clear
10:53 AM 82.9 °F 52.0 °F 34% 29.98 in 10.0 mi ESE 6.9 mph - N/A   Clear
11:53 AM 84.0 °F 51.1 °F 32% 29.97 in 10.0 mi East 3.5 mph - N/A   Clear
12:53 PM 86.0 °F 50.0 °F 29% 29.95 in 10.0 mi Variable 5.8 mph - N/A   Clear
1:53 PM 86.0 °F 50.0 °F 29% 29.93 in 10.0 mi Calm Calm - N/A   Overcast
2:53 PM 89.1 °F 46.9 °F 23% 29.90 in 10.0 mi WSW 6.9 mph - N/A   Scattered Clouds
3:53 PM 93.0 °F 46.0 °F 20% 29.88 in 10.0 mi Variable 3.5 mph - N/A   Clear
4:53 PM 91.0 °F 46.0 °F 21% 29.88 in 10.0 mi WNW 13.8 mph - N/A   Clear
5:53 PM 89.1 °F 48.0 °F 24% 29.89 in 10.0 mi NW 13.8 mph 21.9 mph N/A   Clear
6:53 PM 87.1 °F 45.0 °F 23% 29.92 in 10.0 mi NNE 21.9 mph 34.5 mph N/A   Scattered Clouds
7:05 PM 84.0 °F 48.0 °F 28% 30.11 in 10.0 mi NNE 20.7 mph 33.4 mph N/A   Mostly Cloudy
7:53 PM 82.0 °F 48.9 °F 31% 29.93 in 10.0 mi East 15.0 mph 25.3 mph N/A   Clear
8:53 PM 79.0 °F 51.1 °F 38% 29.97 in 10.0 mi East 15.0 mph 23.0 mph N/A   Clear
9:53 PM 77.0 °F 52.0 °F 42% 29.98 in 10.0 mi NE 11.5 mph - N/A   Clear
10:53 PM 75.9 °F 52.0 °F 43% 29.97 in 10.0 mi NE 10.4 mph - N/A   Clear
11:53 PM 75.0 °F 53.1 °F 46% 29.98 in 10.0 mi East 10.4 mph - N/A   Clear